User: anonymous   Login
Location: Lynch Observatory
(39.9540°N, 75.1861°W)
Time: 18:50:27
(UTC-04:00)
Language:

CUTE-I - Orbit

View from above orbital plane
View from above orbital plane
View from above satellite
View from above satellite

Ground track
Ground track

The orbit data is extracted from the following two-line orbital elements,

1 27844U 03031E   24108.98188711  .00001084  00000-0  49902-3 0  9990
2 27844  98.6795 116.8497 0008976 325.8239  34.2360 14.23167474 79259
Epoch (UTC): 17 April 2024 23:33:55
Eccentricity: 0.0008976
inclination: 98.6795°
perigee height: 808 km
apogee height: 821 km
right ascension of ascending node: 116.8497°
argument of perigee: 325.8239°
revolutions per day: 14.23167474
mean anomaly at epoch: 34.2360°
orbit number at epoch: 7925

The dashed part of the orbit path shows where the satellite is in the earth's shadow,  

DLR